SHIJIAN-23 (SJ-23)

Last updated on Sat Aug 15 2026 00:03:03 GMT+0000 (Coordinated Universal Time)

1 55131U 23002A 26226.76087397 -.00000320 00000+0 00000+0 0 9991 2 55131 3.8636 77.5563 0002559 241.9616 23.8067 1.00039221 13093
UTC large
Height (km)
Speed (km/s)
/
Latitude / Longitude
Inclination (degrees)
Orbital Period (minutes)
Azimuth
Elevation
Range (km)
Doppler Factor

Next 0 passes for location: London (51.5072 / 0.1276)

No passes found over London.
SHIJIAN-23 (SJ-23)